Lakeville, MN

7:02 PM CST on December 02, 2016 (GMT -0600)
Airlake

Weather History for KLVN - July, 2013

Change the Weather History Date:

Saturday, July 27, 2013

  Actual Average Record
Temperature  
Mean Temperature 55 °F -  
Max Temperature 60 °F 81 °F 97 °F (1988)
Min Temperature 50 °F 60 °F 44 °F (1971)
Degree Days  
Heating Degree Days 10    
Growing Degree Days 5 (Base 50)    
Moisture  
Dew Point 47 °F    
Average Humidity 75    
Maximum Humidity 88    
Minimum Humidity 55    
Precipitation  
Precipitation 0.00 in - - ()
Sea Level Pressure  
Sea Level Pressure 30.02 in    
Wind  
Wind Speed 9 mph (NNW)    
Max Wind Speed 20 mph    
Max Gust Speed 32 mph    
Visibility 10 miles    
Events Rain    
Averages and records for this station are not official NWS values.
T = Trace of Precipitation, MM = Missing Value Source: NWS Daily Summary

Daily Weather History Graph

Daily Weather History Graph

Search for Another Location

Airport or City:

Trip Planner

Search our weather history database for the weather conditions in past years. The results will help you decide how hot, cold, wet, or windy it might be!

Date:

Astronomy

Jul. 27, 2013 Rise Set
Actual Time 5:54 AM CDT 8:44 PM CDT
Civil Twilight 5:20 AM CDT 9:17 PM CDT
Nautical Twilight 4:36 AM CDT 10:00 PM CDT
Astronomical Twilight 3:46 AM CDT 10:51 PM CDT
Moon 11:13 PM CDT (7/27) 11:52 AM CDT (7/27)
Length of Visible Light 15h 57m
Length of Day
14h 49m
Waning Gibbous, 70% of the Moon is Illuminated
Jul 27
Waning Gibbous
Jul 29
Last Quarter
Aug 6
New
Aug 14
First Quarter
Aug 20
Full

Hourly Weather History & Observations

Time (CDT) Temp. Dew Point Humidity Pressure Visibility Wind Dir Wind Speed Gust Speed Precip Events Conditions
12:09 AM 55.4 °F 46.4 °F 72% 30.08 in 10.0 mi North 6.9 mph - N/A   Overcast
12:30 AM 55.4 °F 46.4 °F 72% 30.08 in 10.0 mi NNE 6.9 mph - N/A   Overcast
12:49 AM 53.6 °F 46.4 °F 77% 30.08 in 10.0 mi NNE 8.1 mph - N/A   Overcast
1:10 AM 53.6 °F 44.6 °F 72% 30.07 in 10.0 mi NNE 8.1 mph - N/A   Overcast
1:30 AM 53.6 °F 44.6 °F 72% 30.08 in 10.0 mi North 10.4 mph 17.3 mph N/A   Overcast
1:49 AM 53.6 °F 44.6 °F 72% 30.08 in 10.0 mi North 8.1 mph - N/A   Overcast
2:10 AM 53.6 °F 44.6 °F 72% 30.08 in 10.0 mi North 6.9 mph - N/A   Overcast
2:30 AM 53.6 °F 44.6 °F 72% 30.08 in 10.0 mi North 5.8 mph - N/A   Overcast
2:49 AM 51.8 °F 44.6 °F 76% 30.07 in 10.0 mi NNE 5.8 mph - N/A   Overcast
3:10 AM 53.6 °F 44.6 °F 72% 30.06 in 10.0 mi NNE 3.5 mph - N/A   Overcast
3:30 AM 51.8 °F 44.6 °F 76% 30.06 in 10.0 mi NNE 4.6 mph - N/A   Overcast
3:49 AM 51.8 °F 46.4 °F 82% 30.07 in 10.0 mi North 10.4 mph - N/A   Overcast
4:10 AM 50.0 °F 46.4 °F 87% 30.06 in 10.0 mi NNW 4.6 mph - N/A   Light Drizzle
4:29 AM 50.0 °F 46.4 °F 87% 30.06 in 10.0 mi NW 5.8 mph - N/A   Overcast
4:50 AM 51.8 °F 48.2 °F 88% 30.06 in 10.0 mi NW 9.2 mph - N/A   Overcast
5:09 AM 51.8 °F 48.2 °F 88% 30.06 in 10.0 mi NW 8.1 mph - N/A   Overcast
5:29 AM 51.8 °F 48.2 °F 88% 30.06 in 10.0 mi NW 11.5 mph - N/A   Overcast
5:50 AM 51.8 °F 46.4 °F 82% 30.07 in 10.0 mi WNW 8.1 mph - N/A   Overcast
6:09 AM 50.0 °F 46.4 °F 87% 30.07 in 10.0 mi NW 10.4 mph 17.3 mph N/A   Overcast
6:30 AM 51.8 °F 46.4 °F 82% 30.07 in 10.0 mi NW 9.2 mph - N/A   Overcast
6:50 AM 51.8 °F 46.4 °F 82% 30.07 in 10.0 mi NW 10.4 mph - N/A   Overcast
7:09 AM 50.0 °F 46.4 °F 87% 30.06 in 10.0 mi NW 10.4 mph - N/A   Overcast
7:30 AM 51.8 °F 46.4 °F 82% 30.06 in 10.0 mi WNW 8.1 mph - N/A   Overcast
7:50 AM 51.8 °F 46.4 °F 82% 30.06 in 10.0 mi WNW 10.4 mph - N/A   Mostly Cloudy
8:09 AM 53.6 °F 48.2 °F 82% 30.06 in 10.0 mi NW 12.7 mph - N/A   Scattered Clouds
8:30 AM 53.6 °F 46.4 °F 77% 30.06 in 10.0 mi NW 13.8 mph - N/A   Scattered Clouds
8:50 AM 55.4 °F 48.2 °F 77% 30.06 in 10.0 mi WNW 9.2 mph - N/A   Scattered Clouds
9:09 AM 55.4 °F 46.4 °F 72% 30.05 in 10.0 mi WNW 9.2 mph - N/A   Scattered Clouds
9:30 AM 57.2 °F 46.4 °F 67% 30.04 in 10.0 mi WNW 10.4 mph - N/A   Scattered Clouds
9:49 AM 57.2 °F 46.4 °F 67% 30.03 in 10.0 mi WNW 16.1 mph 23.0 mph N/A   Scattered Clouds
10:09 AM 57.2 °F 46.4 °F 67% 30.03 in 10.0 mi NW 13.8 mph 21.9 mph N/A   Mostly Cloudy
10:30 AM 59.0 °F 46.4 °F 63% 30.02 in 10.0 mi NW 17.3 mph 23.0 mph N/A   Scattered Clouds
10:49 AM 60.8 °F 44.6 °F 55% 30.01 in 10.0 mi NW 16.1 mph 23.0 mph N/A   Scattered Clouds
11:09 AM 60.8 °F 46.4 °F 59% 30.01 in 10.0 mi NW 15.0 mph 25.3 mph N/A   Scattered Clouds
11:30 AM 60.8 °F 46.4 °F 59% 30.00 in 10.0 mi NW 15.0 mph 24.2 mph N/A   Mostly Cloudy
11:49 AM 57.2 °F 46.4 °F 67% 30.01 in 7.0 mi NNW 19.6 mph 32.2 mph N/A Rain Rain
12:09 PM 55.4 °F 50.0 °F 82% 30.02 in 10.0 mi NNW 13.8 mph 23.0 mph N/A Rain Light Rain
12:30 PM 53.6 °F 48.2 °F 82% 30.02 in 10.0 mi NNW 13.8 mph 25.3 mph N/A   Light Drizzle
12:49 PM 55.4 °F 48.2 °F 77% 30.02 in 10.0 mi NNW 12.7 mph 18.4 mph N/A Rain Light Rain
1:09 PM 55.4 °F 46.4 °F 72% 30.02 in 10.0 mi NNW 17.3 mph 21.9 mph N/A Rain Light Rain
1:30 PM 53.6 °F 46.4 °F 77% 30.02 in 10.0 mi NNW 13.8 mph 17.3 mph N/A Rain Rain
1:49 PM 53.6 °F 46.4 °F 77% 30.02 in 10.0 mi NNW 11.5 mph - N/A Rain Light Rain
2:09 PM 55.4 °F 48.2 °F 77% 30.01 in 10.0 mi NNW 9.2 mph 16.1 mph N/A Rain Light Rain
2:30 PM 55.4 °F 48.2 °F 77% 30.00 in 10.0 mi NNW 10.4 mph - N/A   Mostly Cloudy
2:49 PM 60.8 °F 48.2 °F 63% 29.99 in 10.0 mi WNW 9.2 mph - N/A   Scattered Clouds
3:09 PM 57.2 °F 46.4 °F 67% 29.99 in 10.0 mi NNW 12.7 mph 18.4 mph N/A Rain Light Rain
3:30 PM 57.2 °F 46.4 °F 67% 29.99 in 10.0 mi NW 15.0 mph 20.7 mph N/A   Overcast
3:49 PM 59.0 °F 46.4 °F 63% 29.98 in 10.0 mi WNW 13.8 mph 18.4 mph N/A   Mostly Cloudy
4:10 PM 57.2 °F 46.4 °F 67% 29.99 in 10.0 mi NW 8.1 mph 17.3 mph N/A   Overcast
4:30 PM 57.2 °F 46.4 °F 67% 29.98 in 10.0 mi NW 8.1 mph - N/A   Overcast
4:49 PM 57.2 °F 48.2 °F 72% 29.98 in 10.0 mi NW 5.8 mph - N/A   Overcast
5:10 PM 59.0 °F 48.2 °F 67% 29.97 in 10.0 mi WNW 5.8 mph - N/A   Overcast
5:30 PM 59.0 °F 48.2 °F 67% 29.96 in 10.0 mi WNW 3.5 mph - N/A   Mostly Cloudy
5:49 PM 57.2 °F 48.2 °F 72% 29.95 in 10.0 mi West 4.6 mph - N/A   Overcast
6:10 PM 57.2 °F 50.0 °F 77% 29.95 in 10.0 mi Calm Calm - N/A   Overcast
6:30 PM 57.2 °F 50.0 °F 77% 29.95 in 10.0 mi WSW 5.8 mph - N/A Rain Rain
6:49 PM 57.2 °F 48.2 °F 72% 29.95 in 10.0 mi West 5.8 mph - N/A Rain Light Rain
7:10 PM 55.4 °F 50.0 °F 82% 29.96 in 7.0 mi NW 11.5 mph - N/A Rain Light Rain
7:30 PM 55.4 °F 51.8 °F 88% 29.95 in 10.0 mi WNW 4.6 mph - N/A Rain Rain
7:49 PM 55.4 °F 51.8 °F 88% 29.95 in 10.0 mi WNW 6.9 mph - N/A Rain Light Rain
8:10 PM 55.4 °F 50.0 °F 82% 29.94 in 10.0 mi NW 8.1 mph - N/A   Light Drizzle
8:30 PM 55.4 °F 50.0 °F 82% 29.95 in 10.0 mi NW 6.9 mph - N/A Rain Light Rain
8:49 PM 55.4 °F 50.0 °F 82% 29.94 in 10.0 mi NW 8.1 mph - N/A   Light Drizzle
9:10 PM 55.4 °F 50.0 °F 82% 29.95 in 10.0 mi Calm Calm - N/A   Overcast
9:30 PM 55.4 °F 50.0 °F 82% 29.96 in 10.0 mi North 8.1 mph - N/A   Overcast
9:49 PM 53.6 °F 50.0 °F 88% 29.96 in 10.0 mi North 5.8 mph 16.1 mph N/A   Overcast
10:10 PM 55.4 °F 46.4 °F 72% 29.97 in 10.0 mi North 8.1 mph - N/A   Overcast
10:29 PM 55.4 °F 46.4 °F 72% 29.97 in 10.0 mi North 9.2 mph 18.4 mph N/A   Overcast
10:49 PM 55.4 °F 46.4 °F 72% 29.97 in 10.0 mi North 10.4 mph - N/A   Overcast
11:10 PM 53.6 °F 44.6 °F 72% 29.97 in 10.0 mi NNW 13.8 mph 18.4 mph N/A   Mostly Cloudy
11:29 PM 53.6 °F 44.6 °F 72% 29.97 in 10.0 mi North 12.7 mph 20.7 mph N/A   Mostly Cloudy
11:49 PM 51.8 °F 44.6 °F 76% 29.97 in 10.0 mi NNW 9.2 mph - N/A   Scattered Clouds